Location: Caltech
(34.1382°N, 118.1253°W)
Time: 08:09:46
(UTC-07:00)

OPAL - Visible Passes

Search period start: 30 July 2014 00:00
Search period end: 09 August 2014 00:00
Orbit: 744 x 797 km, 100.2° (Epoch: 29 July)

Date Brightness Start Highest point End Pass type
(mag) Time Alt. Az. Time Alt. Az. Time Alt. Az.
30 Jul 9.8 03:07:10 10° ESE 03:10:43 20° ENE 03:14:17 10° NNE visible
30 Jul 7.9 04:45:32 14° SSW 04:49:19 38° W 04:53:55 10° NNW visible
31 Jul 7.4 04:09:48 14° SSE 04:14:04 88° ENE 04:19:02 10° NNW visible
01 Aug 8.8 03:34:30 10° SE 03:39:00 37° ENE 03:43:32 10° N visible
01 Aug 8.7 05:14:23 10° SW 05:17:57 20° W 05:21:34 10° NW visible
02 Aug 10.1 03:01:04 10° ESE 03:04:07 17° ENE 03:07:10 10° NNE visible
02 Aug 7.6 04:38:38 15° S 04:42:35 48° WSW 04:47:22 10° NNW visible
03 Aug 7.6 04:02:54 12° SSE 04:07:23 71° ENE 04:12:19 10° N visible
04 Aug 9.2 03:28:06 10° SE 03:32:21 30° ENE 03:36:38 10° N visible
04 Aug 8.4 05:07:27 11° SSW 05:11:11 25° W 05:15:14 10° NW visible
05 Aug 10.3 02:55:11 10° E 02:57:31 14° ENE 02:59:53 10° NNE visible
05 Aug 7.4 04:31:42 14° S 04:35:51 60° WSW 04:40:46 10° NNW visible
06 Aug 8.0 03:55:57 10° SSE 04:00:42 57° ENE 04:05:34 10° N visible
06 Aug 9.2 05:37:42 10° WSW 05:39:53 13° W 05:42:04 10° WNW visible
07 Aug 9.5 03:21:46 10° ESE 03:25:43 25° ENE 03:29:42 10° NNE visible
07 Aug 8.2 05:00:30 12° SSW 05:04:25 31° W 05:08:49 10° NW visible
08 Aug 10.4 02:49:47 10° ENE 02:50:57 11° ENE 02:52:07 10° NE visible
08 Aug 7.3 04:24:45 13° S 04:29:08 76° WSW 04:34:07 10° NNW visible
